Bradford, PA

3:44 PM EDT on October 22, 2017 (GMT -0400)
Bradford Regional

Weather History for KBFD - March, 2013

Change the Weather History Date:

Friday, March 22, 2013

  Actual Average Record
Temperature  
Mean Temperature 24 °F 34 °F  
Max Temperature 28 °F 44 °F 77 °F (2012)
Min Temperature 21 °F 24 °F -4 °F (1988)
Degree Days  
Heating Degree Days 41 26  
Month to date heating degree days 647  
Since 1 July heating degree days 6217  
Cooling Degree Days 0 0  
Month to date cooling degree days 0  
Year to date cooling degree days 0  
Moisture  
Dew Point 16 °F    
Average Humidity 75    
Maximum Humidity 81    
Minimum Humidity 61    
Precipitation  
Precipitation 0.00 in 0.12 in 0.62 in (1968)
Month to date precipitation 2.31  
Year to date precipitation 7.95  
Sea Level Pressure  
Sea Level Pressure 29.81 in    
Wind  
Wind Speed 10 mph (WNW)    
Max Wind Speed 17 mph    
Max Gust Speed 26 mph    
Visibility 4 miles    
Events Snow    
T = Trace of Precipitation, MM = Missing Value Source: NWS Daily Summary

Daily Weather History Graph

Daily Weather History Graph

Search for Another Location

Airport or City:

Trip Planner

Search our weather history database for the weather conditions in past years. The results will help you decide how hot, cold, wet, or windy it might be!

Date:

Astronomy

Mar. 22, 2013 Rise Set
Actual Time 7:14 AM EDT 7:29 PM EDT
Civil Twilight 6:46 AM EDT 7:57 PM EDT
Nautical Twilight 6:13 AM EDT 8:29 PM EDT
Astronomical Twilight 5:40 AM EDT 9:03 PM EDT
Moon 2:51 PM EDT 4:17 AM EDT
Length of Visible Light 13h 10m
Length of Day
12h 15m
Waxing Gibbous, 77% of the Moon is Illuminated
Mar 22
Waxing Gibbous
Mar 27
Full
Apr 3
Last Quarter
Apr 10
New
Apr 18
First Quarter

Hourly Weather History & Observations

Time (EDT) Temp. Windchill Dew Point Humidity Pressure Visibility Wind Dir Wind Speed Gust Speed Precip Events Conditions
12:02 AM 21.9 °F 11.7 °F 16.0 °F 78% 29.71 in 1.8 mi WNW 9.2 mph - 0.00 in Snow Light Snow
12:08 AM 21.9 °F 11.0 °F 16.0 °F 78% 29.71 in 3.0 mi WNW 10.4 mph - 0.00 in Snow Light Snow
12:42 AM 21.0 °F 8.6 °F 15.1 °F 78% 29.71 in 5.0 mi West 12.7 mph - 0.00 in Snow Light Snow
12:53 AM 21.0 °F 8.1 °F 14.0 °F 74% 29.79 in 7.0 mi WNW 13.8 mph 20.7 mph 0.00 in Snow Light Snow
1:53 AM 21.0 °F 9.9 °F 15.1 °F 78% 29.79 in 5.0 mi West 10.4 mph - 0.00 in Snow Light Snow
2:19 AM 21.0 °F 9.9 °F 15.1 °F 78% 29.71 in 2.5 mi West 10.4 mph - 0.00 in Snow Light Snow
2:53 AM 21.0 °F 11.4 °F 15.1 °F 78% 29.79 in 4.0 mi West 8.1 mph - 0.00 in Snow Light Snow
3:05 AM 21.0 °F 11.4 °F 15.1 °F 78% 29.70 in 2.5 mi West 8.1 mph - 0.00 in Snow Light Snow
3:21 AM 21.0 °F 10.6 °F 15.1 °F 78% 29.71 in 3.0 mi West 9.2 mph - 0.00 in Snow Light Snow
3:25 AM 21.0 °F 9.9 °F 15.1 °F 78% 29.71 in 4.0 mi West 10.4 mph - 0.00 in Snow Light Snow
3:46 AM 21.0 °F 9.9 °F 15.1 °F 78% 29.71 in 2.5 mi West 10.4 mph - 0.00 in Snow Light Snow
3:53 AM 21.0 °F 12.4 °F 15.1 °F 78% 29.78 in 2.0 mi West 6.9 mph - 0.00 in Snow Light Snow
4:03 AM 21.0 °F 12.4 °F 16.0 °F 81% 29.70 in 1.5 mi West 6.9 mph - 0.00 in Snow Light Snow
4:28 AM 21.0 °F 14.6 °F 16.0 °F 81% 29.70 in 3.0 mi West 4.6 mph - 0.00 in Snow Light Snow
4:39 AM 21.0 °F 12.4 °F 16.0 °F 81% 29.70 in 9.0 mi West 6.9 mph - 0.00 in   Overcast
4:53 AM 21.0 °F 10.6 °F 15.1 °F 78% 29.77 in 8.0 mi West 9.2 mph - 0.00 in Snow Light Snow
5:53 AM 21.9 °F 11.7 °F 16.0 °F 78% 29.78 in 8.0 mi West 9.2 mph - 0.00 in Snow Light Snow
6:37 AM 21.9 °F 13.4 °F 16.0 °F 78% 29.72 in 2.5 mi West 6.9 mph - 0.00 in Snow Light Snow
6:51 AM 21.2 °F 10.9 °F 15.8 °F 80% 29.73 in 5.0 mi West 9.2 mph - 0.00 in Snow Light Snow
6:53 AM 21.9 °F 11.7 °F 16.0 °F 78% 29.81 in 6.0 mi WNW 9.2 mph - 0.00 in Snow Light Snow
7:25 AM 21.9 °F 11.7 °F 16.0 °F 78% 29.74 in 1.8 mi West 9.2 mph - 0.00 in Snow Light Snow
7:31 AM 21.9 °F 11.0 °F 16.0 °F 78% 29.74 in 2.5 mi WNW 10.4 mph - 0.00 in Snow Light Snow
7:33 AM 21.9 °F 10.4 °F 16.0 °F 78% 29.74 in 3.0 mi West 11.5 mph - 0.00 in Snow Light Snow
7:47 AM 21.2 °F 8.9 °F 15.8 °F 80% 29.75 in 1.8 mi West 12.7 mph - 0.00 in Snow Light Snow
7:48 AM 21.9 °F 9.2 °F 16.0 °F 78% 29.83 in 1.8 mi West 13.8 mph - 0.00 in Snow Light Snow
7:55 AM 21.9 °F 10.4 °F 16.0 °F 78% 29.75 in 1.5 mi West 11.5 mph 19.6 mph 0.00 in Snow Light Snow
8:28 AM 21.9 °F 9.2 °F 16.0 °F 78% 29.75 in 2.0 mi West 13.8 mph - 0.00 in Snow Light Snow
8:37 AM 21.9 °F 11.0 °F 16.0 °F 78% 29.76 in 2.5 mi WNW 10.4 mph - 0.00 in Snow Light Snow
8:53 AM 23.0 °F 11.1 °F 16.0 °F 74% 29.84 in 1.8 mi West 12.7 mph - 0.00 in Snow Light Snow
9:11 AM 23.0 °F 12.4 °F 16.0 °F 74% 29.76 in 2.5 mi West 10.4 mph 23.0 mph 0.00 in Snow Light Snow
9:19 AM 23.0 °F 11.7 °F 15.1 °F 72% 29.76 in 4.0 mi WNW 11.5 mph 24.2 mph 0.00 in Snow Light Snow
9:53 AM 24.1 °F 12.0 °F 15.1 °F 69% 29.84 in 4.0 mi WNW 13.8 mph 23.0 mph 0.00 in Snow Light Snow
10:10 AM 24.1 °F 13.1 °F 16.0 °F 71% 29.77 in 2.0 mi West 11.5 mph 20.7 mph 0.00 in Snow Light Snow
10:53 AM 24.1 °F 11.0 °F 16.0 °F 71% 29.86 in 1.8 mi WNW 16.1 mph 25.3 mph 0.00 in Snow Light Snow
11:09 AM 24.1 °F 12.0 °F 17.1 °F 75% 29.78 in 2.0 mi WNW 13.8 mph - 0.00 in Snow Light Snow
11:21 AM 25.0 °F 11.7 °F 16.0 °F 69% 29.78 in 3.0 mi West 17.3 mph - 0.00 in Snow Light Snow
11:53 AM 26.1 °F 15.6 °F 16.0 °F 66% 29.86 in 6.0 mi WNW 11.5 mph 26.5 mph 0.00 in Snow Light Snow
12:53 PM 27.0 °F 16.7 °F 15.1 °F 61% 29.86 in 9.0 mi West 11.5 mph 21.9 mph 0.00 in   Overcast
1:53 PM 26.1 °F 13.1 °F 15.1 °F 63% 29.87 in 10.0 mi West 17.3 mph 25.3 mph 0.00 in   Overcast
2:53 PM 26.1 °F 15.0 °F 16.0 °F 66% 29.88 in 8.0 mi West 12.7 mph 18.4 mph 0.00 in Snow Light Snow
3:53 PM 26.1 °F 16.2 °F 16.0 °F 66% 29.88 in 6.0 mi West 10.4 mph 17.3 mph 0.00 in Snow Light Snow
4:53 PM 26.1 °F 16.2 °F 17.1 °F 69% 29.90 in 8.0 mi West 10.4 mph - 0.00 in Snow Light Snow
5:27 PM 25.0 °F 11.7 °F 17.1 °F 72% 29.84 in 7.0 mi West 17.3 mph 23.0 mph 0.00 in Snow Light Snow
5:53 PM 25.0 °F 14.8 °F 16.0 °F 69% 29.92 in 7.0 mi WNW 10.4 mph 20.7 mph 0.00 in   Overcast
6:09 PM 25.0 °F 13.6 °F 16.0 °F 69% 29.85 in 6.0 mi West 12.7 mph 21.9 mph 0.00 in Snow Light Snow
6:36 PM 25.0 °F 14.2 °F 17.1 °F 72% 29.86 in 2.5 mi West 11.5 mph - 0.00 in Snow Light Snow
6:53 PM 24.1 °F 13.1 °F 17.1 °F 75% 29.94 in 3.0 mi West 11.5 mph - 0.00 in Snow Light Snow
7:08 PM 24.1 °F 13.7 °F 17.1 °F 75% 29.87 in 2.0 mi West 10.4 mph - 0.00 in Snow Light Snow
7:45 PM 24.1 °F 14.4 °F 17.1 °F 75% 29.88 in 3.0 mi West 9.2 mph - 0.00 in Snow Light Snow
7:53 PM 24.1 °F 14.4 °F 17.1 °F 75% 29.96 in 2.5 mi West 9.2 mph - 0.00 in Snow Light Snow
8:02 PM 24.1 °F 14.4 °F 17.1 °F 75% 29.88 in 3.0 mi West 9.2 mph - 0.00 in Snow Light Snow
8:53 PM 24.1 °F 15.2 °F 17.1 °F 75% 29.97 in 4.0 mi West 8.1 mph - 0.00 in Snow Light Snow
9:28 PM 24.1 °F 13.7 °F 17.1 °F 75% 29.90 in 7.0 mi WNW 10.4 mph - 0.00 in Snow Light Snow
9:53 PM 24.1 °F 14.4 °F 17.1 °F 75% 29.98 in 10.0 mi WNW 9.2 mph - 0.00 in   Overcast
10:53 PM 24.1 °F 14.4 °F 17.1 °F 75% 29.97 in 10.0 mi West 9.2 mph - 0.00 in   Overcast
11:53 PM 24.1 °F 17.0 °F 17.1 °F 75% 29.97 in 9.0 mi WNW 5.8 mph - 0.00 in   Overcast